Location: Foligno
(42.9600°N, 12.7050°E)
Time: 13:37:37
(UTC+02:00)

ISS - Pass Details

Date: 20 May 2018
Orbit: 402 x 407 km, 51.6° (Epoch: 26 May)

Event Time Altitude Azimuth Distance (km) Brightness Sun altitude
Rises 03:13:06 0° 305° (NW) 2,319 0.1 -20.6°
Reaches altitude 10° 03:15:26 10° 319° (NW) 1,458 -0.8 -20.4°
Maximum altitude 03:18:12 25° 17° (NNE) 863 -1.4 -20.1°
Drops below altitude 10° 03:20:57 10° 75° (ENE) 1,455 -0.4 -19.8°
Sets 03:23:16 0° 89° (E) 2,313 0.5 -19.6°
